Weather History for Frankfort, MI

Change the Weather History Date:

Friday, July 26, 2013

  Actual Average (KTVC) Record (KTVC)
Temperature  
Mean Temperature 67 °F 69 °F  
Max Temperature 75 °F 80 °F 99 °F (1941)
Min Temperature 59 °F 58 °F 45 °F (1909)
Degree Days  
Heating Degree Days 0 1  
Month to date heating degree days 27  
Since 1 June heating degree days 139  
Since 1 July heating degree days 27  
Cooling Degree Days 2 5  
Month to date cooling degree days 130  
Year to date cooling degree days 231  
Since 1 June cooling degree days 211  
Growing Degree Days 17 (Base 50)    
Moisture  
Dew Point 59 °F    
Average Humidity 76    
Maximum Humidity 94    
Minimum Humidity 59    
Precipitation  
Precipitation 0.00 in 0.10 in 1.58 in (1960)
Month to date precipitation 2.50  
Year to date precipitation 17.21  
Sea Level Pressure  
Sea Level Pressure 29.92 in    
Wind  
Wind Speed 6 mph (SSW)    
Max Wind Speed 20 mph    
Max Gust Speed 30 mph    
Visibility 9 miles    
Events Rain    
T = Trace of Precipitation, MM = Missing Value Source: NWS Daily Summary

Daily Weather History Graph

Daily Weather History Graph

Search for Another Location

Airport:

Trip Planner

Search our weather history database for the weather conditions in past years. The results will help you decide how hot, cold, wet, or windy it might be!

Date:

Astronomy

Jul. 26, 2013 Rise Set
Actual Time 6:24 AM EDT 9:17 PM EDT
Civil Twilight 5:50 AM EDT 9:51 PM EDT
Nautical Twilight 5:07 AM EDT 10:34 PM EDT
Astronomical Twilight 4:16 AM EDT 11:25 PM EDT
Moon 11:15 PM EDT (7/26) 11:14 AM EDT (7/26)
Length of Visible Light 16h 00m
Length of Day
14h 52m
Waning Gibbous, 80% of the Moon is Illuminated
Jul 26
Waning Gibbous
Jul 29
Last Quarter
Aug 6
New
Aug 14
First Quarter
Aug 20
Full

Hourly Weather History & Observations

Time (EDT) Temp. Dew Point Humidity Pressure Visibility Wind Dir Wind Speed Gust Speed Precip Events Conditions
12:14 AM 60.1 °F 52.5 °F 76% 29.99 in 10.0 mi Calm Calm - N/A   Overcast
12:34 AM 60.1 °F 52.2 °F 75% 29.99 in 10.0 mi Calm Calm - N/A   Overcast
12:54 AM 60.3 °F 52.2 °F 75% 29.98 in 10.0 mi Calm Calm - N/A   Scattered Clouds
1:12 AM 59.9 °F 52.3 °F 76% 29.98 in 10.0 mi Calm Calm - N/A   Scattered Clouds
1:32 AM 59.7 °F 53.2 °F 79% 29.98 in 10.0 mi Calm Calm - N/A   Mostly Cloudy
1:52 AM 62.6 °F 51.8 °F 68% 29.98 in 10.0 mi Calm Calm - N/A   Mostly Cloudy
2:12 AM 64.4 °F 51.1 °F 62% 29.98 in 10.0 mi SSE 3.5 mph - N/A   Mostly Cloudy
2:32 AM 64.8 °F 52.3 °F 64% 29.98 in 10.0 mi Calm Calm - N/A   Overcast
2:52 AM 64.8 °F 52.9 °F 65% 29.98 in 10.0 mi Calm Calm - N/A   Overcast
3:12 AM 65.5 °F 53.6 °F 65% 29.97 in 10.0 mi South 4.6 mph - N/A   Overcast
3:32 AM 67.1 °F 54.1 °F 63% 29.96 in 10.0 mi South 5.8 mph - N/A   Overcast
3:53 AM 67.5 °F 55.4 °F 65% 29.95 in 10.0 mi South 8.1 mph - N/A   Overcast
4:15 AM 68.2 °F 56.1 °F 65% 29.95 in 10.0 mi South 6.9 mph - N/A   Overcast
4:35 AM 68.2 °F 55.8 °F 64% 29.95 in 10.0 mi South 6.9 mph 17.3 mph N/A   Mostly Cloudy
4:55 AM 68.5 °F 55.9 °F 64% 29.95 in 10.0 mi South 6.9 mph - N/A   Mostly Cloudy
5:15 AM 68.9 °F 56.5 °F 65% 29.95 in 10.0 mi SSW 11.5 mph 16.1 mph N/A   Overcast
5:35 AM 68.5 °F 57.0 °F 67% 29.95 in 10.0 mi SSW 8.1 mph - N/A   Overcast
5:55 AM 68.4 °F 57.6 °F 68% 29.95 in 10.0 mi SSW 9.2 mph - N/A   Overcast
6:15 AM 68.4 °F 58.6 °F 71% 29.95 in 10.0 mi SSW 8.1 mph - N/A   Overcast
6:36 AM 68.4 °F 60.1 °F 75% 29.95 in 10.0 mi SSW 8.1 mph - N/A   Overcast
6:56 AM 68.5 °F 60.8 °F 76% 29.95 in 10.0 mi South 8.1 mph - N/A   Overcast
7:16 AM 68.9 °F 61.2 °F 76% 29.95 in 10.0 mi SSW 6.9 mph - N/A   Mostly Cloudy
7:36 AM 68.9 °F 61.3 °F 77% 29.95 in 10.0 mi SSW 9.2 mph - N/A   Overcast
7:56 AM 68.9 °F 61.3 °F 77% 29.95 in 10.0 mi SSW 8.1 mph - N/A   Overcast
8:16 AM 69.8 °F 61.5 °F 75% 29.95 in 10.0 mi SSW 8.1 mph - N/A   Overcast
8:36 AM 70.2 °F 61.7 °F 74% 29.95 in 10.0 mi SSW 5.8 mph - N/A   Overcast
8:56 AM 69.8 °F 61.7 °F 75% 29.95 in 10.0 mi SSW 6.9 mph - N/A   Overcast
9:16 AM 70.5 °F 61.9 °F 74% 29.95 in 10.0 mi SSW 9.2 mph - N/A   Overcast
9:31 AM 71.6 °F 62.1 °F 72% 29.95 in 10.0 mi SSW 8.1 mph 16.1 mph N/A   Mostly Cloudy
9:52 AM 72.1 °F 61.9 °F 70% 29.95 in 10.0 mi South 11.5 mph 19.6 mph N/A   Scattered Clouds
10:12 AM 72.5 °F 62.1 °F 70% 29.94 in 10.0 mi SSW 10.4 mph 19.6 mph N/A   Clear
10:32 AM 72.7 °F 62.2 °F 70% 29.94 in 10.0 mi South 11.5 mph 20.7 mph N/A   Clear
10:52 AM 71.8 °F 62.6 °F 73% 29.94 in 10.0 mi SSW 13.8 mph 21.9 mph N/A   Clear
11:12 AM 73.2 °F 62.8 °F 70% 29.93 in 10.0 mi SSW 13.8 mph 21.9 mph N/A   Clear
11:32 AM 75.2 °F 63.7 °F 67% 29.94 in 10.0 mi SSW 12.7 mph 19.6 mph N/A   Mostly Cloudy
11:52 AM 74.3 °F 63.0 °F 68% 29.93 in 10.0 mi SSW 13.8 mph 20.7 mph N/A   Scattered Clouds
12:12 PM 74.7 °F 63.3 °F 68% 29.93 in 10.0 mi SSW 10.4 mph 21.9 mph N/A   Mostly Cloudy
12:32 PM 75.6 °F 62.8 °F 64% 29.92 in 10.0 mi SW 15.0 mph 25.3 mph N/A   Scattered Clouds
12:53 PM 75.0 °F 62.4 °F 65% 29.91 in 10.0 mi SSW 13.8 mph 20.7 mph N/A   Clear
1:13 PM 75.0 °F 62.6 °F 65% 29.91 in 10.0 mi SSW 16.1 mph 20.7 mph N/A   Clear
1:33 PM 73.4 °F 62.6 °F 69% 29.91 in 10.0 mi SSW 10.4 mph 24.2 mph N/A   Mostly Cloudy
1:53 PM 73.8 °F 62.1 °F 67% 29.90 in 10.0 mi SSW 16.1 mph 24.2 mph N/A   Overcast
2:13 PM 74.1 °F 59.2 °F 59% 29.90 in 10.0 mi SSW 17.3 mph 28.8 mph N/A   Mostly Cloudy
2:33 PM 75.6 °F 60.3 °F 59% 29.88 in 10.0 mi SSW 12.7 mph 26.5 mph N/A   Mostly Cloudy
2:53 PM 72.5 °F 60.8 °F 67% 29.88 in 10.0 mi SSW 19.6 mph 29.9 mph N/A   Mostly Cloudy
3:13 PM 69.4 °F 61.7 °F 76% 29.89 in 10.0 mi SSW 18.4 mph 28.8 mph N/A Rain Light Rain
3:33 PM 69.8 °F 61.0 °F 73% 29.89 in 10.0 mi South 19.6 mph 24.2 mph N/A   Overcast
3:53 PM 68.7 °F 62.1 °F 79% 29.89 in 10.0 mi South 15.0 mph 21.9 mph N/A Rain Rain
4:14 PM 67.5 °F 61.5 °F 81% 29.89 in 10.0 mi South 17.3 mph 27.6 mph N/A Rain Light Rain
4:34 PM 66.6 °F 62.1 °F 85% 29.90 in 10.0 mi SSW 17.3 mph 26.5 mph N/A Rain Rain
4:54 PM 66.0 °F 61.5 °F 85% 29.90 in 7.0 mi SSW 11.5 mph 26.5 mph N/A Rain Rain
5:14 PM 64.9 °F 61.2 °F 88% 29.89 in 7.0 mi South 13.8 mph 24.2 mph N/A   Drizzle
5:34 PM 64.9 °F 61.9 °F 90% 29.89 in 5.0 mi SSW 8.1 mph 26.5 mph N/A Rain Light Rain
5:54 PM 64.6 °F 61.0 °F 88% 29.89 in 10.0 mi SSW 13.8 mph 21.9 mph N/A   Overcast
6:14 PM 64.8 °F 60.1 °F 85% 29.89 in 10.0 mi SSW 6.9 mph - N/A   Overcast
6:34 PM 61.3 °F 58.1 °F 89% 29.90 in 1.8 mi NW 12.7 mph 20.7 mph N/A Rain Heavy Rain
6:54 PM 60.1 °F 58.1 °F 93% 29.88 in 0.8 mi Calm Calm - N/A Rain Heavy Rain
7:15 PM 62.8 °F 60.8 °F 93% 29.88 in 7.0 mi South 9.2 mph - N/A Rain Light Rain
7:35 PM 63.5 °F 60.8 °F 91% 29.85 in 10.0 mi SSE 9.2 mph - N/A Rain Light Rain
7:55 PM 63.9 °F 61.2 °F 91% 29.85 in 10.0 mi SSE 9.2 mph - N/A   Overcast
8:15 PM 64.4 °F 61.7 °F 91% 29.84 in 10.0 mi SSE 5.8 mph - N/A Rain Light Rain
8:35 PM 64.4 °F 61.7 °F 91% 29.85 in 10.0 mi SSE 4.6 mph - N/A   Mostly Cloudy
8:55 PM 64.4 °F 61.3 °F 90% 29.86 in 10.0 mi SW 3.5 mph - N/A   Overcast
9:15 PM 64.6 °F 61.7 °F 90% 29.87 in 10.0 mi South 4.6 mph - N/A   Overcast
9:35 PM 64.0 °F 60.8 °F 89% 29.87 in 10.0 mi West 3.5 mph 16.1 mph N/A Rain Light Rain
9:56 PM 63.9 °F 59.9 °F 87% 29.88 in 10.0 mi Calm Calm - N/A   Overcast
10:16 PM 63.3 °F 59.5 °F 87% 29.86 in 10.0 mi Calm Calm - N/A   Mostly Cloudy
10:36 PM 61.5 °F 59.0 °F 91% 29.85 in 10.0 mi Calm Calm - N/A   Mostly Cloudy
10:56 PM 61.7 °F 59.5 °F 93% 29.86 in 7.0 mi Calm Calm - N/A   Overcast
11:16 PM 61.3 °F 59.4 °F 93% 29.86 in 10.0 mi Calm Calm - N/A   Mostly Cloudy
11:36 PM 60.4 °F 58.6 °F 94% 29.85 in 2.5 mi Calm Calm - N/A   Scattered Clouds
11:56 PM 59.2 °F 57.6 °F 94% 29.84 in 5.0 mi Calm Calm - N/A   Clear